User: anonymous   Login
Location: Pace/Milton
(30.6162°N, 87.1503°W)
Time: 11:21:50
(UTC-06:00)
Language:

N. Korean satellite - Orbit

View from above orbital plane
View from above orbital plane
View from above satellite
View from above satellite

Ground track
Ground track

The orbit data is extracted from the following two-line orbital elements,

1 39026U 12072A   22021.90964990  .00007856  00000-0  25037-3 0  9991
2 39026  97.2605  14.9101 0032482 327.7399  32.1855 15.32287566506455
Epoch (UTC): 21 January 2022 21:49:53
Eccentricity: 0.0032482
inclination: 97.2605°
perigee height: 447 km
apogee height: 491 km
right ascension of ascending node: 14.9101°
argument of perigee: 327.7399°
revolutions per day: 15.32287566
mean anomaly at epoch: 32.1855°
orbit number at epoch: 50645

The dashed part of the orbit path shows where the satellite is in the earth's shadow,  

DLR